Weather History for KVOK - June, 2014

Change the Weather History Date:

Wednesday, June 11, 2014

  Actual Average Record
Temperature  
Mean Temperature 64 °F -  
Max Temperature 79 °F 71 °F 86 °F (2001)
Min Temperature 50 °F 58 °F 44 °F (2011)
Degree Days  
Heating Degree Days 1    
Growing Degree Days 14 (Base 50)    
Moisture  
Dew Point 55 °F    
Average Humidity 73    
Maximum Humidity 100    
Minimum Humidity 42    
Precipitation  
Precipitation 0.00 in - - ()
Sea Level Pressure  
Sea Level Pressure 29.81 in    
Wind  
Wind Speed 5 mph (NE)    
Max Wind Speed 13 mph    
Max Gust Speed 18 mph    
Visibility 10 miles    
Events      
Averages and records for this station are not official NWS values.
T = Trace of Precipitation, MM = Missing Value Source: NWS Daily Summary

Daily Weather History Graph

Daily Weather History Graph

Search for Another Location

Airport or City:

Trip Planner

Search our weather history database for the weather conditions in past years. The results will help you decide how hot, cold, wet, or windy it might be!

Date:

Astronomy

Jun. 11, 2014 Rise Set
Actual Time 5:18 AM CDT 8:43 PM CDT
Civil Twilight 4:42 AM CDT 9:19 PM CDT
Nautical Twilight 3:54 AM CDT 10:06 PM CDT
Astronomical Twilight 2:55 AM CDT 11:06 PM CDT
Moon 7:10 PM CDT (6/11) 4:12 AM CDT (6/11)
Length of Visible Light 16h 37m
Length of Day
15h 25m
Waxing Gibbous, 97% of the Moon is Illuminated
Jun 11
Waxing Gibbous
Jun 12
Full
Jun 19
Last Quarter
Jun 27
New
Jul 5
First Quarter

Hourly Weather History & Observations

Time (CDT) Temp. Dew Point Humidity Pressure Visibility Wind Dir Wind Speed Gust Speed Precip Events Conditions
12:58 AM 60.1 °F 55.0 °F 83% 29.86 in 10.0 mi East 4.6 mph - N/A   Overcast
1:58 AM 55.6 °F 55.2 °F 99% 29.85 in 10.0 mi Variable 3.5 mph - N/A   Overcast
2:58 AM 51.8 °F 51.8 °F 100% 29.86 in 10.0 mi NW 3.5 mph - N/A   Clear
3:58 AM 50.9 °F 50.7 °F 99% 29.87 in 10.0 mi WNW 4.6 mph - N/A   Clear
4:58 AM 53.1 °F 53.1 °F 100% 29.87 in 10.0 mi West 3.5 mph - N/A   Mostly Cloudy
5:58 AM 55.0 °F 54.5 °F 98% 29.86 in 10.0 mi Calm Calm - N/A   Mostly Cloudy
6:58 AM 54.5 °F 54.5 °F 100% 29.86 in 10.0 mi WNW 3.5 mph - N/A   Mostly Cloudy
7:58 AM 57.2 °F 55.4 °F 94% 29.86 in 10.0 mi WNW 2.3 mph - N/A   Mostly Cloudy
8:58 AM 60.8 °F 55.4 °F 82% 29.84 in 10.0 mi NNE 4.6 mph - N/A   Mostly Cloudy
9:58 AM 67.6 °F 58.3 °F 72% 29.83 in 10.0 mi East 8.1 mph - N/A   Scattered Clouds
10:58 AM 69.8 °F 57.2 °F 64% 29.81 in 10.0 mi NE 5.8 mph - N/A   Scattered Clouds
11:58 AM 73.4 °F 55.4 °F 53% 29.80 in 10.0 mi NNE 9.2 mph - N/A   Scattered Clouds
12:58 PM 75.2 °F 53.6 °F 47% 29.80 in 10.0 mi ENE 8.1 mph - N/A   Scattered Clouds
1:58 PM 77.0 °F 53.6 °F 44% 29.79 in 10.0 mi NNE 12.7 mph - N/A   Scattered Clouds
2:58 PM 78.8 °F 55.4 °F 44% 29.77 in 10.0 mi NE 9.2 mph 18.4 mph N/A   Scattered Clouds
3:58 PM 78.8 °F 53.6 °F 42% 29.78 in 10.0 mi Variable 4.6 mph - N/A   Scattered Clouds
4:58 PM 78.8 °F 55.4 °F 44% 29.77 in 10.0 mi ENE 11.5 mph - N/A   Scattered Clouds
5:58 PM 77.0 °F 53.6 °F 44% 29.76 in 10.0 mi NNE 8.1 mph - N/A   Scattered Clouds
6:58 PM 75.2 °F 55.4 °F 50% 29.75 in 10.0 mi East 6.9 mph - N/A   Scattered Clouds
7:58 PM 71.6 °F 55.4 °F 57% 29.77 in 10.0 mi ESE 5.8 mph - N/A   Scattered Clouds
8:58 PM 66.2 °F 55.4 °F 68% 29.77 in 10.0 mi SE 8.1 mph - N/A   Scattered Clouds
9:58 PM 64.4 °F 55.4 °F 73% 29.77 in 10.0 mi South 4.6 mph - N/A   Scattered Clouds
10:58 PM 56.5 °F 56.3 °F 99% 29.79 in 10.0 mi North - - N/A   Clear
11:58 PM 54.7 °F 54.7 °F 100% 29.78 in 10.0 mi Calm Calm - N/A   Clear